#timestamp,LO_Frequency,Hit,StdDev 
1675224015.2,286047000.6,N
1675224035.0,286046998.6,N
1675224035.9,286046998.6,N
1675224055.7,286046998.4,N
1675224075.6,286046996.5,N
1675224095.4,286046996.6,N
1675224115.3,286046997.4,N
1675224135.1,286046996.8,N
1675224155.8,286046996.8,N
1675224175.7,286046999.4,N
1675224195.5,286046997.1,N
1675224215.4,286046997.4,N
1675224235.2,286046999.2,N
1675224255.0,286046998.4,N
1675224256.0,286046998.4,N
1675224275.8,286046999.3,N
1675224295.6,286046999.3,N
1675224315.5,286046997.2,N
1675224335.3,286046997.2,N
1675224355.1,286046995.2,Y
1675224375.9,286046997.3,P
1675224395.7,286046997.3,P
1675224415.6,286046997.3,P
1675224435.4,286046997.4,Y
1675224455.2,286046999.6,P
1675224475.1,286046998.6,N
1675224476.0,286046998.6,N
1675224495.8,286047001.1,N
1675224515.7,286046998.2,N
1675224535.5,286047001.2,N
1675224555.3,286046998.1,N
1675224575.2,286047000.8,N
1675224595.0,286047000.8,N
1675224595.9,286047000.8,N
1675224615.7,286046998.1,N
1675224665.6,286046998.2,E
1675224675.5,286047002.4,N
1675224695.4,286047001.5,P
1675224715.2,286047001.8,P
1675224735.0,286047001.9,Y
1675224736.0,286047001.9,P
1675224755.8,286047000.5,P
1675224775.6,286047000.1,N
1675224795.5,286046998.4,N
1675224815.3,286047001.2,N
1675224835.2,286046998.7,N
1675224855.9,286047000.8,N
1675224875.7,286046996.6,N
1675224895.6,286046999.0,N
1675224915.4,286046997.1,N
1675224935.2,286046999.4,N
1675224955.1,286046999.1,N
1675224956.0,286046999.1,N
1675224975.8,286046999.3,N
1675224995.7,286046999.5,N
1675225015.5,286046998.9,N
1675225035.3,286046998.8,N
1675225055.2,286046999.6,N
1675225075.0,286046995.3,Y
1675225075.9,286046995.3,P
1675225095.7,286046997.4,N
1675225115.6,286046997.7,N
1675225135.4,286046998.9,N
1675225155.3,286046997.1,N
1675225175.1,286046997.2,N
1675225176.0,286046997.2,N
1675225195.8,286046999.4,N
1675225215.7,286046998.4,N
1675225235.5,286046999.0,N
1675225255.3,286046998.3,N
1675225275.2,286046996.7,N
1675225295.0,286047000.8,N
1675225295.9,286047000.8,N
1675225315.8,286046999.4,N
1675225335.6,286046998.5,N
1675225355.5,286046999.0,N
1675225375.3,286046998.5,N
1675225395.1,286047001.0,N
1675225415.9,286047001.0,N
1675225435.7,286047000.4,N
1675225455.5,286047000.3,N
1675225475.4,286046998.6,N
1675225495.2,286046998.3,N
1675225515.1,286046999.4,N
1675225516.0,286046999.4,N
1675225535.8,286046998.8,N
1675225555.6,286046999.3,N
1675225575.5,286046998.7,N
1675225595.3,286046999.1,N
1675225615.1,286046998.3,N
1675225635.9,286046998.6,N
1675225655.7,286046998.4,N
1675225675.6,286046996.7,N
1675225695.4,286046998.4,N
1675225715.2,286047001.1,N
1675225735.1,286046998.8,N
1675225736.0,286046998.8,N
1675225755.8,286047000.9,N
1675225775.7,286046998.5,N
1675225795.5,286047000.0,N
1675225815.3,286046999.9,N
1675225835.2,286046999.9,N
1675225855.9,286047000.3,N
1675225875.7,286046999.7,N
1675225895.6,286047002.6,N
1675225915.4,286047002.5,N
1675225935.3,286047001.8,N
1675225955.1,286047001.4,N
1675225956.0,286047001.4,N
1675225975.8,286047001.8,N
1675225995.7,286047003.9,N
1675226015.5,286047003.9,N
1675226035.4,286047003.7,N
1675226055.2,286047001.7,N
1675226075.0,286047001.4,N
1675226075.9,286047001.4,N
1675226095.8,286047004.1,N
1675226115.6,286047004.1,N
1675226135.4,286047001.5,N
1675226155.3,286046999.7,N
1675226175.1,286047002.1,N
1675226195.9,286047001.3,N
1675226215.7,286047004.4,N
1675226235.5,286047003.8,N
1675226255.4,286047004.0,N
1675226275.2,286047001.3,N
1675226295.0,286047003.4,N
1675226295.9,286047003.4,N
1675226315.8,286047003.3,N
1675226335.6,286047003.1,N
1675226355.5,286047003.1,N
1675226375.3,286047003.5,N
1675226395.1,286047003.6,N
1675226415.9,286047004.0,Y
1675226435.7,286046999.9,P
1675226455.6,286047001.6,N
1675226475.4,286047002.8,N
1675226495.2,286047000.5,N
1675226515.1,286046999.5,N
1675226516.0,286046999.5,N
1675226535.8,286046996.5,N
1675226555.6,286046999.4,N
1675226575.5,286047001.2,N
1675226595.3,286047002.3,N
1675226615.2,286047003.8,N
1675226635.9,286047004.0,N
1675226655.7,286047005.8,N
1675226675.6,286047005.6,N
1675226695.4,286047001.5,N
1675226715.2,286047004.3,N
1675226735.1,286047002.2,N
1675226736.0,286047002.2,N
1675226755.8,286046999.9,N
1675226775.7,286047001.9,N
1675226795.5,286047001.5,N
1675226815.3,286047003.2,N
1675226835.2,286047002.1,N
1675226855.0,286047001.3,N
1675226855.9,286047001.3,N
1675226875.7,286047003.5,N
1675226895.6,286047003.1,N
1675226915.4,286047003.4,N
1675226935.3,286047001.9,N
1675226955.1,286047003.2,N
1675226956.0,286047003.2,N
1675226975.8,286047005.2,N
1675226995.7,286047007.6,Y
1675227015.5,286047002.9,P
1675227035.4,286047002.9,P
1675227055.2,286047003.8,P
1675227075.0,286047000.9,N
1675227075.9,286047000.9,N
1675227095.8,286047000.9,N
1675227115.6,286047000.9,N
1675227135.4,286047000.3,N
1675227155.3,286047001.2,N
1675227175.1,286046998.8,N
1675227195.9,286046997.1,N
1675227215.7,286046999.6,N
1675227235.5,286046998.3,N
1675227255.4,286046999.7,N
1675227275.2,286047001.3,N
1675227295.0,286047003.0,N
1675227295.9,286047003.0,N
1675227315.8,286047006.0,Y
1675227335.6,286047003.0,P
1675227355.5,286047002.4,N
1675227375.3,286046999.6,N
1675227395.1,286047002.3,N
1675227415.9,286047002.4,N
1675227435.7,286047000.5,N
1675227455.5,286046999.0,N
1675227475.4,286046997.8,N
1675227495.2,286046996.7,N
1675227515.1,286046998.1,N
1675227546.0,286047001.5,E
1675227555.0,286047002.0,N
1675227555.9,286047002.0,P
1675227575.8,286047002.5,P
1675227595.6,286047002.7,Y
